ECO005 EDDF-LOWW

Flight info

Callsign ECO005
Flight time N/A
Altitude FL310
Route SULUS7S/18 SULUS Z650 VEMUT BUDEX BUDE2W
Aircraft A339/H-SADE1E2E3GHIJ3J5M1P2RWXY/LB2D1

Departure

Time 2026-05-07 14:14
Airport Frankfurt Main Airport (EDDF)

Arrival

Time N/A
Airport Vienna International Airport (LOWW)
Time Latitude Longitude Altitude Speed Heading
2026-05-07 13:36 50.04735 8.58093 389 ft 0 kts 161°
2026-05-07 13:56 50.04736 8.58093 389 ft 2 kts 161°
2026-05-07 13:57 50.04751 8.58086 390 ft 2 kts 163°
2026-05-07 13:57 50.04765 8.58079 390 ft 2 kts 168°
2026-05-07 13:57 50.04779 8.58077 390 ft 2 kts 189°
2026-05-07 13:57 50.04794 8.58083 390 ft 2 kts 205°
2026-05-07 13:58 50.04806 8.58094 391 ft 2 kts 221°
2026-05-07 13:58 50.04816 8.58111 391 ft 2 kts 237°
2026-05-07 13:58 50.04821 8.58125 392 ft 0 kts 249°
2026-05-07 13:58 50.04823 8.58131 392 ft 0 kts 250°
2026-05-07 14:02 50.04818 8.58114 391 ft 4 kts 250°
2026-05-07 14:02 50.04803 8.58048 389 ft 9 kts 249°
2026-05-07 14:02 50.04758 8.57959 387 ft 12 kts 221°
2026-05-07 14:03 50.04698 8.57846 383 ft 15 kts 245°
2026-05-07 14:03 50.04659 8.57689 382 ft 16 kts 250°
2026-05-07 14:03 50.04618 8.57524 381 ft 17 kts 249°
2026-05-07 14:03 50.04578 8.57360 383 ft 16 kts 249°
2026-05-07 14:04 50.04539 8.57199 383 ft 16 kts 250°
2026-05-07 14:04 50.04498 8.57032 382 ft 17 kts 249°
2026-05-07 14:04 50.04457 8.56857 381 ft 18 kts 252°
2026-05-07 14:04 50.04415 8.56668 377 ft 19 kts 250°
2026-05-07 14:05 50.04368 8.56474 376 ft 19 kts 250°
2026-05-07 14:05 50.04329 8.56309 372 ft 11 kts 250°
2026-05-07 14:05 50.04301 8.56194 372 ft 12 kts 250°
2026-05-07 14:05 50.04269 8.56062 371 ft 14 kts 249°
2026-05-07 14:06 50.04230 8.55908 368 ft 16 kts 249°
2026-05-07 14:06 50.04187 8.55739 367 ft 18 kts 249°
2026-05-07 14:06 50.04146 8.55560 367 ft 17 kts 251°
2026-05-07 14:06 50.04107 8.55386 367 ft 18 kts 251°
2026-05-07 14:07 50.04064 8.55202 365 ft 19 kts 250°
2026-05-07 14:07 50.04017 8.55002 360 ft 21 kts 250°
2026-05-07 14:07 50.03964 8.54785 358 ft 22 kts 249°
2026-05-07 14:07 50.03909 8.54558 354 ft 22 kts 250°
2026-05-07 14:08 50.03874 8.54412 354 ft 12 kts 249°
2026-05-07 14:08 50.03828 8.54300 353 ft 13 kts 234°
2026-05-07 14:08 50.03790 8.54179 355 ft 12 kts 250°
2026-05-07 14:08 50.03761 8.54060 357 ft 11 kts 250°
2026-05-07 14:09 50.03734 8.53947 358 ft 11 kts 250°
2026-05-07 14:09 50.03708 8.53838 360 ft 11 kts 250°
2026-05-07 14:09 50.03681 8.53724 359 ft 12 kts 249°
2026-05-07 14:09 50.03649 8.53596 359 ft 14 kts 248°
2026-05-07 14:10 50.03613 8.53454 358 ft 15 kts 251°
2026-05-07 14:10 50.03577 8.53294 355 ft 17 kts 251°
2026-05-07 14:10 50.03531 8.53113 353 ft 18 kts 249°
2026-05-07 14:10 50.03494 8.52957 353 ft 13 kts 249°
2026-05-07 14:11 50.03467 8.52854 352 ft 9 kts 248°
2026-05-07 14:11 50.03442 8.52757 352 ft 11 kts 248°
2026-05-07 14:11 50.03414 8.52655 351 ft 6 kts 248°
2026-05-07 14:11 50.03397 8.52615 351 ft 5 kts 216°
2026-05-07 14:12 50.03357 8.52597 350 ft 3 kts 186°
2026-05-07 14:12 50.03355 8.52597 350 ft 0 kts 185°
2026-05-07 14:12 50.03346 8.52595 350 ft 11 kts 185°
2026-05-07 14:13 50.03017 8.52590 343 ft 82 kts 181°
2026-05-07 14:13 50.02238 8.52603 340 ft 140 kts 180°
2026-05-07 14:13 50.01111 8.52582 410 ft 180 kts 182°
2026-05-07 14:13 49.99837 8.52610 950 ft 185 kts 180°
2026-05-07 14:14 49.98601 8.52637 1793 ft 176 kts 182°
2026-05-07 14:14 49.97413 8.52657 2442 ft 177 kts 173°
2026-05-07 14:14 49.96283 8.53512 2828 ft 192 kts 129°
2026-05-07 14:14 49.95541 8.55305 3253 ft 207 kts 116°
2026-05-07 14:15 49.94850 8.57358 3709 ft 225 kts 116°
2026-05-07 14:15 49.94215 8.59622 4154 ft 236 kts 104°
2026-05-07 14:15 49.93935 8.62157 4633 ft 247 kts 92°
2026-05-07 14:15 49.93835 8.64887 5022 ft 264 kts 91°
2026-05-07 14:16 49.93712 8.67771 5562 ft 275 kts 99°
2026-05-07 14:16 49.92885 8.70451 6237 ft 283 kts 132°
2026-05-07 14:16 49.91363 8.72341 6984 ft 285 kts 146°
2026-05-07 14:16 49.89733 8.74072 7698 ft 288 kts 144°
2026-05-07 14:17 49.88278 8.76185 8406 ft 292 kts 129°
2026-05-07 14:17 49.87163 8.78781 9143 ft 294 kts 120°
2026-05-07 14:17 49.86174 8.81531 9868 ft 296 kts 118°
2026-05-07 14:17 49.85188 8.84328 10554 ft 302 kts 118°
2026-05-07 14:18 49.84151 8.87242 11051 ft 315 kts 118°
2026-05-07 14:18 49.83074 8.90243 11516 ft 327 kts 119°
2026-05-07 14:18 49.81949 8.93356 11992 ft 340 kts 119°
2026-05-07 14:18 49.80784 8.96565 12596 ft 348 kts 119°
2026-05-07 14:19 49.79598 8.99821 13320 ft 352 kts 119°
2026-05-07 14:19 49.78401 9.03103 14046 ft 355 kts 119°
2026-05-07 14:19 49.77208 9.06428 14777 ft 358 kts 116°
2026-05-07 14:19 49.76191 9.09962 15507 ft 362 kts 110°
2026-05-07 14:20 49.75436 9.13651 16223 ft 365 kts 104°
2026-05-07 14:20 49.74824 9.17443 16932 ft 368 kts 102°
2026-05-07 14:20 49.74230 9.21275 17634 ft 372 kts 102°
2026-05-07 14:20 49.73617 9.25144 18316 ft 375 kts 103°
2026-05-07 14:21 49.72990 9.29051 18973 ft 380 kts 103°
2026-05-07 14:21 49.72353 9.32996 19651 ft 383 kts 103°
2026-05-07 14:21 49.71702 9.37004 20339 ft 386 kts 103°
2026-05-07 14:21 49.71049 9.41007 20974 ft 389 kts 103°
2026-05-07 14:22 49.70388 9.45047 21580 ft 393 kts 103°
2026-05-07 14:22 49.69718 9.49128 22186 ft 396 kts 103°
2026-05-07 14:22 49.69041 9.53239 22766 ft 400 kts 103°
2026-05-07 14:22 49.68356 9.57391 23316 ft 404 kts 103°
2026-05-07 14:23 49.67667 9.61583 23854 ft 407 kts 102°
2026-05-07 14:23 49.67278 9.65924 24373 ft 410 kts 91°
2026-05-07 14:23 49.67449 9.70287 24933 ft 411 kts 79°
2026-05-07 14:23 49.68094 9.74550 25508 ft 412 kts 73°
2026-05-07 14:24 49.68873 9.78774 26090 ft 413 kts 72°
2026-05-07 14:24 49.69660 9.83013 26614 ft 415 kts 72°
2026-05-07 14:24 49.70437 9.87287 27081 ft 418 kts 73°
2026-05-07 14:24 49.71292 9.91554 27554 ft 419 kts 68°
2026-05-07 14:25 49.72467 9.95673 28082 ft 419 kts 61°
2026-05-07 14:25 49.73944 9.99513 28563 ft 419 kts 54°
2026-05-07 14:25 49.75609 10.03186 29005 ft 421 kts 53°
2026-05-07 14:25 49.77314 10.06839 29464 ft 422 kts 53°
2026-05-07 14:26 49.79018 10.10488 30030 ft 421 kts 53°
2026-05-07 14:26 49.80717 10.14138 30506 ft 421 kts 53°
2026-05-07 14:26 49.82416 10.17807 30912 ft 423 kts 53°
2026-05-07 14:26 49.84133 10.21530 31267 ft 425 kts 53°
2026-05-07 14:27 49.85843 10.25246 31558 ft 428 kts 53°
2026-05-07 14:27 49.87561 10.28986 31829 ft 430 kts 53°
2026-05-07 14:27 49.89289 10.32759 32046 ft 433 kts 53°
2026-05-07 14:27 49.91027 10.36553 32275 ft 436 kts 53°
2026-05-07 14:28 49.92774 10.40379 32495 ft 438 kts 53°
2026-05-07 14:28 49.94544 10.44258 32690 ft 442 kts 53°
2026-05-07 14:28 49.96312 10.48142 32891 ft 444 kts 53°
2026-05-07 14:28 49.98087 10.52046 33106 ft 446 kts 54°
2026-05-07 14:29 49.99866 10.55966 33380 ft 447 kts 54°
2026-05-07 14:29 50.01638 10.59909 33593 ft 449 kts 56°
2026-05-07 14:29 50.03144 10.64143 33767 ft 453 kts 64°
2026-05-07 14:29 50.04251 10.68711 33972 ft 455 kts 73°
2026-05-07 14:30 50.04934 10.73498 34147 ft 458 kts 82°
2026-05-07 14:30 50.05176 10.78452 34330 ft 461 kts 90°
2026-05-07 14:30 50.04957 10.83407 34543 ft 463 kts 98°
2026-05-07 14:30 50.04283 10.88269 34779 ft 463 kts 107°
2026-05-07 14:31 50.03311 10.93021 34965 ft 465 kts 109°
2026-05-07 14:31 50.01253 11.02497 35001 ft 466 kts 109°
2026-05-07 14:32 49.99207 11.12018 35001 ft 465 kts 109°
2026-05-07 14:32 49.97184 11.21502 34993 ft 466 kts 109°
2026-05-07 14:33 49.95165 11.31011 34996 ft 466 kts 109°
2026-05-07 14:33 49.93157 11.40514 34996 ft 467 kts 108°
2026-05-07 14:34 49.91361 11.50185 34991 ft 468 kts 106°
2026-05-07 14:34 49.89591 11.59840 34988 ft 468 kts 106°
2026-05-07 14:35 49.88044 11.69568 34982 ft 468 kts 102°
2026-05-07 14:35 49.87077 11.79526 34982 ft 468 kts 98°
2026-05-07 14:36 49.86219 11.89457 34984 ft 468 kts 99°
2026-05-07 14:36 49.85335 11.99388 34985 ft 469 kts 99°
2026-05-07 14:37 49.84438 12.09329 34981 ft 469 kts 99°
2026-05-07 14:37 49.83074 12.24290 34982 ft 469 kts 99°
2026-05-07 14:38 49.82097 12.34201 34972 ft 468 kts 103°
2026-05-07 14:38 49.80364 12.43821 34971 ft 466 kts 111°
2026-05-07 14:39 49.77717 12.52925 34967 ft 464 kts 120°
2026-05-07 14:39 49.74281 12.61295 34966 ft 463 kts 126°
2026-05-07 14:40 49.70621 12.69427 34972 ft 463 kts 127°
2026-05-07 14:40 49.66951 12.77577 34977 ft 463 kts 127°
2026-05-07 14:41 49.63295 12.85693 34980 ft 463 kts 127°
2026-05-07 14:41 49.59640 12.93790 34982 ft 463 kts 127°
2026-05-07 14:42 49.55981 13.01878 34981 ft 463 kts 127°
2026-05-07 14:42 49.52302 13.09984 34982 ft 463 kts 127°
2026-05-07 14:43 49.48635 13.18038 34977 ft 462 kts 128°
2026-05-07 14:43 49.46805 13.22052 34736 ft 461 kts 128°
2026-05-07 14:43 49.44980 13.26045 34346 ft 459 kts 128°
2026-05-07 14:44 49.43166 13.30011 33947 ft 455 kts 128°
2026-05-07 14:44 49.41348 13.33977 33611 ft 452 kts 128°
2026-05-07 14:44 49.39551 13.37895 33219 ft 452 kts 128°
2026-05-07 14:44 49.37753 13.41805 32770 ft 453 kts 128°
2026-05-07 14:45 49.35949 13.45722 32262 ft 453 kts 128°
2026-05-07 14:45 49.34148 13.49630 31861 ft 449 kts 128°
2026-05-07 14:45 49.32364 13.53495 31496 ft 446 kts 128°
2026-05-07 14:45 49.30586 13.57342 31080 ft 443 kts 128°
2026-05-07 14:46 49.28808 13.61184 30668 ft 440 kts 128°
2026-05-07 14:46 49.27055 13.64969 30240 ft 437 kts 128°
2026-05-07 14:46 49.25310 13.68728 29799 ft 434 kts 129°
2026-05-07 14:46 49.23576 13.72459 29378 ft 431 kts 129°
2026-05-07 14:47 49.21853 13.76161 28939 ft 429 kts 129°
2026-05-07 14:47 49.20142 13.79832 28529 ft 426 kts 129°
2026-05-07 14:47 49.18437 13.83484 28080 ft 424 kts 129°
2026-05-07 14:47 49.16726 13.87142 27644 ft 421 kts 129°
2026-05-07 14:48 49.15037 13.90748 27221 ft 419 kts 129°
2026-05-07 14:48 49.13357 13.94332 26788 ft 417 kts 129°
2026-05-07 14:48 49.11684 13.97900 26332 ft 414 kts 129°
2026-05-07 14:48 49.10030 14.01422 25578 ft 410 kts 129°
2026-05-07 14:49 49.08382 14.04923 24907 ft 408 kts 129°
2026-05-07 14:49 49.06744 14.08403 24478 ft 405 kts 130°
2026-05-07 14:49 49.05103 14.11883 24078 ft 402 kts 129°
2026-05-07 14:49 49.03480 14.15317 23606 ft 400 kts 130°
2026-05-07 14:50 49.01870 14.18724 23138 ft 398 kts 130°
2026-05-07 14:50 49.00268 14.22111 22712 ft 395 kts 130°
2026-05-07 14:50 48.98674 14.25471 22300 ft 392 kts 130°
2026-05-07 14:50 48.97092 14.28800 21869 ft 390 kts 130°
2026-05-07 14:51 48.95516 14.32112 21436 ft 387 kts 130°
2026-05-07 14:51 48.93925 14.35409 21009 ft 384 kts 131°
2026-05-07 14:51 48.92318 14.38606 20602 ft 382 kts 131°
2026-05-07 14:51 48.90710 14.41772 20194 ft 379 kts 131°
2026-05-07 14:52 48.89109 14.44923 19779 ft 377 kts 131°
2026-05-07 14:52 48.87524 14.48048 19389 ft 374 kts 131°
2026-05-07 14:52 48.85950 14.51154 19004 ft 372 kts 131°
2026-05-07 14:52 48.84387 14.54239 18615 ft 369 kts 131°
2026-05-07 14:53 48.82824 14.57319 18231 ft 367 kts 131°
2026-05-07 14:53 48.81280 14.60363 17841 ft 365 kts 131°
2026-05-07 14:53 48.79745 14.63387 17462 ft 363 kts 131°
2026-05-07 14:53 48.78215 14.66398 17081 ft 361 kts 131°
2026-05-07 14:54 48.76696 14.69383 16720 ft 358 kts 131°
2026-05-07 14:54 48.75200 14.72319 16545 ft 349 kts 131°
2026-05-07 14:54 48.73741 14.75181 16386 ft 341 kts 131°
2026-05-07 14:54 48.72302 14.77997 16233 ft 333 kts 131°
2026-05-07 14:55 48.70909 14.80721 16087 ft 325 kts 131°
2026-05-07 14:55 48.69543 14.83385 15874 ft 320 kts 131°
2026-05-07 14:55 48.68190 14.86022 15566 ft 319 kts 131°
2026-05-07 14:55 48.66839 14.88651 15248 ft 317 kts 131°
2026-05-07 14:56 48.65496 14.91261 14935 ft 316 kts 131°
2026-05-07 14:56 48.64148 14.93882 14618 ft 315 kts 131°
2026-05-07 14:56 48.62813 14.96471 14324 ft 313 kts 131°
2026-05-07 14:56 48.61487 14.99045 14029 ft 311 kts 131°
2026-05-07 14:57 48.60166 15.01606 13734 ft 310 kts 131°
2026-05-07 14:57 48.59006 15.04328 13417 ft 312 kts 118°
2026-05-07 14:57 48.58286 15.07397 13084 ft 315 kts 103°
2026-05-07 14:57 48.57991 15.10709 12715 ft 331 kts 97°
2026-05-07 14:58 48.57781 15.14228 12461 ft 342 kts 96°
2026-05-07 14:58 48.57578 15.17824 12207 ft 343 kts 96°
2026-05-07 14:58 48.57366 15.21384 11956 ft 342 kts 96°
2026-05-07 14:58 48.57147 15.24929 11706 ft 340 kts 96°
2026-05-07 14:59 48.56920 15.28460 11455 ft 339 kts 96°
2026-05-07 14:59 48.56689 15.31980 11203 ft 338 kts 96°
2026-05-07 14:59 48.56455 15.35477 10954 ft 336 kts 96°
2026-05-07 14:59 48.56220 15.38962 10704 ft 335 kts 96°
2026-05-07 15:00 48.55984 15.42448 10449 ft 331 kts 97°
2026-05-07 15:00 48.55750 15.45860 10200 ft 327 kts 96°
2026-05-07 15:00 48.55518 15.49229 9950 ft 322 kts 96°
2026-05-07 15:00 48.55288 15.52554 9699 ft 319 kts 96°
2026-05-07 15:01 48.55059 15.55841 9447 ft 315 kts 96°
2026-05-07 15:01 48.54832 15.59091 9194 ft 312 kts 96°
2026-05-07 15:01 48.54607 15.62308 8941 ft 308 kts 96°
2026-05-07 15:01 48.54381 15.65522 8685 ft 306 kts 97°
2026-05-07 15:02 48.54158 15.68679 8431 ft 303 kts 97°
2026-05-07 15:02 48.53936 15.71802 8178 ft 300 kts 97°
2026-05-07 15:02 48.53715 15.74905 7926 ft 297 kts 97°
2026-05-07 15:02 48.53496 15.77976 7678 ft 295 kts 96°
2026-05-07 15:03 48.53277 15.81022 7429 ft 293 kts 96°
2026-05-07 15:03 48.53060 15.84049 7180 ft 291 kts 96°
2026-05-07 15:03 48.52841 15.87074 6930 ft 289 kts 96°
2026-05-07 15:03 48.52625 15.90058 6683 ft 287 kts 96°
2026-05-07 15:04 48.52409 15.93024 6436 ft 285 kts 96°
2026-05-07 15:04 48.52193 15.95971 6189 ft 284 kts 96°
2026-05-07 15:04 48.51980 15.98891 6012 ft 279 kts 96°
2026-05-07 15:04 48.51770 16.01765 5887 ft 274 kts 96°
2026-05-07 15:05 48.51564 16.04573 5761 ft 268 kts 96°
2026-05-07 15:05 48.51359 16.07342 5636 ft 263 kts 96°
2026-05-07 15:05 48.51159 16.10039 5510 ft 257 kts 96°
2026-05-07 15:05 48.50963 16.12680 5383 ft 252 kts 96°
2026-05-07 15:06 48.50770 16.15273 5256 ft 248 kts 96°
2026-05-07 15:06 48.50579 16.17818 5131 ft 243 kts 96°
2026-05-07 15:06 48.50392 16.20315 5009 ft 239 kts 96°
2026-05-07 15:06 48.50205 16.22786 4994 ft 238 kts 96°
2026-05-07 15:07 48.50018 16.25258 4994 ft 239 kts 96°
2026-05-07 15:07 48.49891 16.27737 4994 ft 239 kts 88°
2026-05-07 15:07 48.50042 16.30207 4989 ft 238 kts 78°
2026-05-07 15:07 48.50440 16.32612 4992 ft 237 kts 73°
2026-05-07 15:08 48.50903 16.34981 4989 ft 236 kts 72°
2026-05-07 15:08 48.51181 16.37400 4974 ft 237 kts 93°
2026-05-07 15:08 48.50739 16.39771 4978 ft 238 kts 120°
2026-05-07 15:08 48.49648 16.41628 4981 ft 237 kts 147°
2026-05-07 15:09 48.48167 16.42634 4987 ft 235 kts 165°
2026-05-07 15:09 48.46594 16.43272 4985 ft 235 kts 167°
2026-05-07 15:09 48.45019 16.43899 4984 ft 235 kts 166°
2026-05-07 15:09 48.43448 16.44535 4984 ft 235 kts 166°
2026-05-07 15:10 48.41879 16.45181 4982 ft 235 kts 166°
2026-05-07 15:10 48.40328 16.45829 4972 ft 228 kts 166°
2026-05-07 15:10 48.38835 16.46458 4968 ft 216 kts 166°
2026-05-07 15:10 48.37431 16.47052 4964 ft 205 kts 166°
2026-05-07 15:11 48.36107 16.47613 4970 ft 193 kts 166°
2026-05-07 15:11 48.34865 16.48140 4981 ft 182 kts 166°
2026-05-07 15:11 48.33645 16.48656 4847 ft 183 kts 166°
2026-05-07 15:11 48.32424 16.49172 4616 ft 183 kts 165°
2026-05-07 15:12 48.31201 16.49690 4383 ft 184 kts 165°
2026-05-07 15:12 48.29966 16.50213 4146 ft 184 kts 165°
2026-05-07 15:12 48.28754 16.50726 3905 ft 179 kts 165°
2026-05-07 15:12 48.27568 16.51229 3673 ft 178 kts 165°
2026-05-07 15:13 48.26379 16.51731 3442 ft 178 kts 165°
2026-05-07 15:13 48.25193 16.52232 3218 ft 176 kts 165°
2026-05-07 15:13 48.24038 16.52721 2983 ft 171 kts 165°
2026-05-07 15:13 48.22917 16.53196 2753 ft 165 kts 165°
2026-05-07 15:14 48.21825 16.53658 2538 ft 159 kts 165°
2026-05-07 15:14 48.20786 16.54097 2334 ft 153 kts 166°
2026-05-07 15:14 48.19791 16.54518 2140 ft 146 kts 166°
2026-05-07 15:14 48.18826 16.54926 1964 ft 145 kts 166°
2026-05-07 15:15 48.17865 16.55332 1785 ft 143 kts 166°
2026-05-07 15:15 48.16913 16.55733 1600 ft 143 kts 166°
2026-05-07 15:15 48.15963 16.56130 1417 ft 142 kts 166°
2026-05-07 15:15 48.15008 16.56525 1231 ft 142 kts 166°
2026-05-07 15:16 48.14063 16.56920 1050 ft 141 kts 165°
2026-05-07 15:16 48.13127 16.57341 837 ft 141 kts 165°
2026-05-07 15:16 48.12195 16.57743 656 ft 139 kts 166°
2026-05-07 15:16 48.11283 16.58113 596 ft 128 kts 163°
2026-05-07 15:17 48.10597 16.58402 602 ft 67 kts 166°